カタログに戻る

STARLINK-30251

運用中通信VLEO
NORAD 57532·PAYLOAD·🇺🇸 United States

打ち上げ Aug 8, 2023 から Vandenberg Space Force Base

Loading…

次のパス (今後24時間)

TLE

最新Source: CelesTrak SupGP

元期: Sep 15, 2026, 03:14 UTC

1 57532C 23115M   26258.13520833  .00019903  00000+0  72070-3 0  2580
2 57532  43.0042  11.4718 0002016 269.9198 224.5974 15.27575065    19

AllMySatでSTARLINK-30251をリアルタイム追跡

Download on the App Store